Bayside, Texas
Current Conditions -  °F | °C
As of 12:53 AM on Friday 28 Nov 2014 (Local Time) from KRKP Reporting Station
Clear Clear  
Wind Chill: 58°   Ceiling: Unl
Heat Index: 58°   Visibility: 10mi
Dew Point: 55°   Wind: 6mph
Humidity: 90%   Direction: 90°E
Pressure: 30.35"   Gusts: NA
Location:  28.09°N, 97.21°W
Report Text: KRKP 280653Z AUTO 09005KT 10SM CLR 14/13 A3035 RMK AO2 SLP279 T01440128
Loading
Personal Weather Stations






























Interactive Weather Map New forecast layout! Learn more

10-Day Weather Forecast

Advertisements
Track Severe Weather on mobile